{"data":{"norad_id":63459,"intl_designator":"2025-069AC","name":"STARLINK-33780","alt_names":[],"object_type":"PAYLOAD","status":"ACTIVE","operator":null,"country":"US","launch_date":"2025-04-04","launch_site_code":"AFWTR","launch_vehicle":null,"mission":null,"orbit_class":"UNKNOWN","rcs_meters":null,"size_class":null,"mass_kg":null,"dimensions":null,"purposes":["comms"],"wikipedia_slug":null,"has_3d_model":false,"image_url":null,"decayed_at":null,"tle_current":{"epoch":"2026-09-20T20:28:21.956160Z","epoch_age_seconds":125152,"freshness":"FRESH","line1":"1 63459U 25069AC  26263.85303190  .00018061  00000+0  54438-3 0  9999","line2":"2 63459  53.1602 308.2320 0001224  83.4721 276.6421 15.34400252 83283","mean_motion":15.34400252,"eccentricity":0.0001224,"inclination_deg":53.1602,"raan_deg":308.232,"arg_perigee_deg":83.4721,"mean_anomaly_deg":276.6421,"bstar":0.00054438,"rev_number":8328,"period_min":93.847742668384,"perigee_km":461.86517245638,"apogee_km":463.53980996382,"semimajor_km":6840.8394912101,"source":"CELESTRAK","updated_at":"2026-09-21T09:00:35.006790Z"}}}